Preview of NWS' New Version of Forecast
This preview is not operational and should not be used for support decisions.

Regional Weather Roundup (RWR)

Issued by National Weather Service (NWS)

                            
622 
ASUS45 KTFX 200510
RWRMT 
MONTANA REGIONAL WEATHER ROUNDUP
NATIONAL WEATHER SERVICE GREAT FALLS MT
1100 PM MDT TUE JUN 19 2018

NOTE: "FAIR" INDICATES FEW OR NO CLOUDS BELOW 12000 FEET WITH NO
SIGNIFICANT WEATHER AND/OR OBSTRUCTIONS TO VISIBILITY.

MTZ001>007-043-200600-
WEST OF THE DIVIDE
  
CITY           SKY/WX    TMP DP  RH WIND       PRES   REMARKS
KALISPELL      FAIR      55  51  86 CALM      30.15R                  
MISSOULA       FAIR      58  52  80 CALM      30.18R                  
BUTTE          CLOUDY    51  47  86 SE5       30.28R                  
MULLAN PASS    FAIR      51  43  74 SE3       30.26R                  
DEER LODGE       N/A     52  52 100 CALM      30.26S                  
HAMILTON         N/A     55  50  82 CALM      30.20R                  
LIBBY            N/A     59  54  82 S3        30.14R                  
PLAINS           N/A     56  50  80 CALM      30.15R                  
RONAN            N/A     54  48  82 E5        30.18R                  
$$

MTZ008-052>055-200600-
SOUTHWEST MONTANA
  
CITY           SKY/WX    TMP DP  RH WIND       PRES   REMARKS
BOZEMAN        MOCLDY    54  51  90 S3        30.24S                  
DILLON         CLOUDY    51  50  96 CALM      30.25R                  
ENNIS          CLOUDY    50  46  87 NE6       30.29S                  
W YELLOWSTONE  CLOUDY    48  46  93 CALM      30.28R                  
TWIN BRIDGES     N/A     52  46  79 MISG      30.21R                  
$$

MTZ009-010-012-014-046-048-049-054-200600-
EAST SLOPES AND CENTRAL MONTANA
  
CITY           SKY/WX    TMP DP  RH WIND       PRES   REMARKS
CUT BANK       MOCLDY    54  52  93 NW8       30.19R                  
GREAT FALLS    CLOUDY    56  54  93 NW8       30.18S                  
MALMSTROM AFB  MOCLDY    55  54  94 W5        30.18R                  
HELENA         CLOUDY    57  51  80 CALM      30.20R                  
AUGUSTA        MOCLDY    53  53  97 N5        30.21S                  
BOWMANS CRNR   MOCLDY    53  50  90 CALM      30.19S                  
CHOTEAU          N/A     55  54  94 NW5       30.22S                  
RAYNESFORD     DRIZZLE   55  55 100 SW6       30.18S                  
ULM            MOCLDY    55  54  94 NW5       30.18S                  
WHITE SULPHUR    N/A     52  48  87 CALM      30.22S                  
$$

MTZ011-013-016-021-045-047-050-051-200600-
NORTH CENTRAL MONTANA
  
CITY           SKY/WX    TMP DP  RH WIND       PRES   REMARKS
HAVRE          FAIR      58  56  93 CALM      30.14R                  
LEWISTOWN      MOCLDY    54  53  97 SW6       30.19R                  
N BAR RANCH    CLOUDY    52  50  93 E5        30.23R                  
CHINOOK          N/A     57  57 100 CALM      30.14R                  
GRASS RANGE    FAIR      54  51  90 SE3       30.16R                  
JUDITH GAP     CLOUDY    53  51  93 NW8       30.19F                  
ROY            MOCLDY   N/A N/A N/A SW12        N/A                   
STANFORD       MOCLDY    51  49  90 SW5       30.20R                  
$$

MTZ017>020-022>027-061-062-200600-
NORTHEAST MONTANA
  
CITY           SKY/WX    TMP DP  RH WIND       PRES   REMARKS
GLASGOW        FAIR      61  52  72 E5        30.11R                  
GLENDIVE       FAIR      63  57  81 N6        30.10F                  
JORDAN           N/A     55  52  89 N6        30.13R                  
MALTA          MOCLDY    61  61 100 CALM      30.11R                  
SIDNEY         CLOUDY    64  57  78 N3        30.10S                  
WOLF POINT     FAIR      59  52  77 CALM      30.11S                  
PLENTYWOOD       N/A     64  54  68 CALM      30.12S                  
POPLAR           N/A     61  52  72 N5        30.11S                  
SCOBEY           N/A     61  46  57 CALM      30.12R                  
$$

MTZ028>42-056>058-200600-
SOUTHCENTRAL AND SOUTHEAST MONTANA
  
CITY           SKY/WX    TMP DP  RH WIND       PRES   REMARKS
BAKER          FAIR      59  57  93 CALM      30.13S                  
BILLINGS       LGT RAIN  56  56 100 SW7       30.17F                  
LIVINGSTON     CLOUDY    53  52  96 SW9       30.22S                  
MILES CITY     FAIR      60  58  92 NE7       30.10F                  
BIG TIMBER     CLOUDY    54  50  87 CALM      30.21F                  
EKALAKA          N/A     56  51  83 CALM      30.10S                  
FORSYTH          N/A    N/A N/A N/A CALM      30.10F                  
HARLOWTON      LGT RAIN  54  52  94 W7        30.20R                  
LAUREL           N/A     57  55  94 E3        30.18F                  
$$

REGIONAL REPORTS...DAKOTAS
  
CITY           SKY/WX    TMP DP  RH WIND       PRES   REMARKS
WILLISTON      CLOUDY    64  55  72 N3        30.10S                  
MINOT          FAIR      64  53  67 SW6       30.06S                  
DICKINSON      FAIR      62  56  80 NE5       30.09R                  
BEACH          CLOUDY    61  61 100 NW5       30.14F                  
CROSBY         FAIR      59  55  88 W8        30.11S                  
TIOGA          FAIR      57  57 100 W6        30.12S                  
WATFORD CITY   CLOUDY    64  59  82 CALM      30.09F                  
BISMARCK       CLOUDY    66  55  67 NE5       30.05S                  
GRAND FORKS    FAIR      60  57  89 NW5       29.99F                  
FARGO          FAIR      63  56  78 N5        29.98F                  
BUFFALO SD       N/A     61  57  87 N10       30.03                   
RAPID CITY     CLOUDY    59  57  93 N6        30.07F                  
$$

REGIONAL REPORTS...WYOMING/IDAHO/WASHINGTON
  
CITY           SKY/WX    TMP DP  RH WIND       PRES   REMARKS
GILLETTE       FAIR      55  51  86 N3        30.14R                  
SHERIDAN       FAIR      55  53  93 N5        30.15F                  
BUFFALO WY     FAIR      52  50  93 N6          N/A                   
CODY           LGT RAIN  54  48  82 NW7       30.24R                  
YELLOWSTONE LA   N/A     42  41  96 CALM      30.35R                  
IDAHO FALLS    CLOUDY    55  54  96 N3        30.22R                  
SALMON         CLOUDY    59  54  83 S6        30.20R                  
BOISE          FAIR      69  52  54 NE3       30.10R                  
SPOKANE        MOCLDY    72  49  44 E5        30.10R                  
$$

REGIONAL REPORTS...ALBERTA
  
CITY           SKY/WX    TMP DP  RH WIND       PRES   REMARKS
CALGARY        PTCLDY    63  45  51 S13       30.15S                  
CARDSTON         N/A     54  50  87 SW3         N/A                   
EDMONTON       CLEAR     61  48  63 S2        30.06S                  
FORT MCMURRAY  CLOUDY    79  52  38 S9        29.89F                  
HIGH LEVEL     CLEAR     79  46  31 CALM      29.84S                  
LETHBRIDGE     CLEAR     55  48  76 S7        30.16S                  
LLOYDMINSTER   CLEAR     64  48  55 SW8       30.08S                  
MEDICINE HAT   CLEAR     59  54  82 SW5       30.14R                  
MILK RIVER       N/A     55  52  88 N3          N/A                   
PEACE RIVER    PTCLDY    70  59  68 W5        29.95S                  
PINCHER CREEK  CLEAR     52  48  87 W7        30.20S                  
WATERTON GATE    N/A     50  46  87 SW5         N/A                   
$$

REGIONAL REPORTS...SASKATCHEWAN
  
CITY           SKY/WX    TMP DP  RH WIND       PRES   REMARKS
CORONACH         N/A     54  50  87 NW3         N/A                   
CYPRESS HILLS    N/A     55  45  67 E3          N/A                   
ESTEVAN        MOCLDY    59  54  82 N5        30.09S                  
MOOSE JAW        N/A     57  46  67 W3          N/A                   
PRINCE ALBERT  PTCLDY    66  50  55 SW5       30.04S                  
REGINA         PTCLDY    61  50  67 N5        30.11S                  
SASKATOON      PTCLDY    64  46  52 SW9       30.09S                  
SWIFT CURRENT  CLEAR     57  45  62 SE7       30.14S                  
VAL MARIE        N/A     54  48  82 N2          N/A                   
$$